Terminal Aerodrome Forecast
Issued by NWS

Home | Current Version | Previous Version | Text Only | Print | Product List | Glossary On
Versions: 1 2 3 4 5 6 7 8 9 10 11 12 13 14 15 16
000
FTUS41 KAKQ 232007 AAA
TAFPHF
TAF AMD
KPHF 232007Z 2320/2418 02008KT P6SM VCTS BKN045CB
      TEMPO 2320/2322 VRB20G35KT 1SM TSRA OVC020CB
     FM232200 02007KT 4SM -SHRA BR BKN035 OVC050
     FM240300 04006KT P6SM VCSH OVC040
     FM240600 02006KT P6SM BKN045
     FM241200 03010KT P6SM BKN090=

USA.gov is the U.S. government's official web portal to all federal, state and local government web resources and services.